Torna al catalogo

STARLINK-35905

AttivoComunicazioniVLEO
NORAD 67048·PAYLOAD·🇺🇸 United States

Lanciato Dec 11, 2025 da Cape Canaveral Space Force Station

Loading…

Prossimi Passaggi (prossime 24 ore)

TLE

AggiornatoSource: CelesTrak SupGP

Epoca: Sep 14, 2026, 23:01 UTC

1 67048C 25294U   26257.95951389  .00041866  00000+0  15160-2 0  2574
2 67048  43.0044  49.2544 0001976 279.2525 119.5352 15.27565136    13

Traccia STARLINK-35905 in tempo reale con AllMySat

Download on the App Store